Regional Weather Roundup
Issued by NWS Northern Indiana

Home | Current Version | Previous Version | Text Only | Print | Product List | Glossary Off
Versions: 1 2 3 4 5 6 7 8 9 10 11 12 13 14 15 16 17 18 19 20 21 22 23 24 25 26 27 28 29 30 31 32 33 34 35 36 37 38 39 40 41 42 43 44 45 46 47 48 49 50

000
ASUS43 KIWX 251100
RWRIWX

KIWX WEATHER ROUNDUP
NATIONAL WEATHER SERVICE NORTHERN INDIANA
600 AM EST THU DEC 25 2014

NOTE: "FAIR" INDICATES FEW OR NO CLOUDS BELOW 12,000 FEET WITH NO
SIGNIFICANT WEATHER AND/OR OBSTRUCTIONS TO VISIBILITY.

* THESE STATIONS ARE NOT UNDER NWS QUALITY CONTROL. THEY ALSO MAY NOT
  REPORT WEATHER SUCH AS PRECIPITATION OR FOG.

INZ001>027-251200-
NORTHERN INDIANA

CITY           SKY/WX    TMP DP  RH WIND       PRES   REMARKS
GARY*          CLOUDY    36  28  75 W10       29.84R
VALPARAISO     CLOUDY    34  30  86 W17       29.84R WCI  23
SOUTH BEND     CLOUDY    37  32  82 W12       29.80R
GOSHEN         CLOUDY    36  32  85 W14       29.79R
ANGOLA*        CLOUDY    36  32  87 W12       29.75R
FORT WAYNE     CLOUDY    36  32  85 W15       29.82R
PERU/GRISSOM   CLOUDY    36  36 100 W20       29.85R

$$
INZ028>050-251200-
CENTRAL INDIANA

CITY           SKY/WX    TMP DP  RH WIND       PRES   REMARKS
LAFAYETTE      CLOUDY    35  30  82 W12       29.90R WCI  27
KOKOMO*        CLOUDY    36  30  80 W17       29.87R
MUNCIE*        LGT RAIN  35  33  92 W12G22    29.86R FOG     WCI  27
INDIANAPOLIS   CLOUDY    34  30  85 W12G22    29.91R WCI  25

$$
MIZ043>046-050>051-056>058-064>065-071>073-077>080-251200-
SOUTHWEST LOWER MICHIGAN

CITY           SKY/WX    TMP DP  RH WIND       PRES   REMARKS
BATTLE CREEK   LGT RAIN  37  32  82 W12       29.73R
BENTON HARBOR  CLOUDY    37  31  78 W20G26    29.78R
COLDWATER*     CLOUDY    36  33  89 W16       29.74R
HILLSDALE*     LGT SNOW  35  35  99 W10G20    29.72R WCI  28
HOLLAND        CLOUDY    39  31  72 W15G23    29.73R
GRAND RAPIDS   CLOUDY    37  33  85 W13G22    29.70R
KALAMAZOO      CLOUDY    37  32  82 W12       29.74R
STURGIS*       CLOUDY    36  34  93 W10G18    29.76R
THREE RIVERS*  CLOUDY    37  32  83 W12G23    29.76R

$$
OHZ001>008-015>018-024>025-251200-
NORTHWEST OHIO

CITY           SKY/WX    TMP DP  RH WIND       PRES   REMARKS
DEFIANCE       LGT RAIN  37  33  85 W13G18    29.79R
FINDLAY        CLOUDY    38  33  82 W17G26    29.78R
TOLEDO EXPRESS CLOUDY    36  34  92 W22G28    29.75R
TOLEDO METCALF CLOUDY    38  33  82 W15       29.76R
LIMA           CLOUDY    38  33  82 W23G30    29.80R

$$
AND FOR LAKE MICHIGAN COASTAL AND OPEN LAKE BUOY OBSERVATIONS

STATION/POSITION TEMP    WIND        PRES    VSBY  WAVE
                 AIR SEA DIR/SP/G                  HT/PER
                 (F)     (DEG/KT/KT) (MB)    (MI)  (FT/S)
CALUMET HARBOR    35     240/  9/ 15 1008.5R
MICHIGAN CITY     37     230/ 24/ 27   N/A
SAINT JOSEPH      38     250/ 20/ 22 1007.8R

$$
&&


USA.gov is the U.S. government's official web portal to all federal, state and local government web resources and services.